| time (UTC) | temp F | wind direction | speed MPH | gust MPH | rain 1hr in | rain 24hr in | rain mn in | humidity % | barometer mb |
| 20260504182039 | 67 | 288 | 2.0 | 6.0 | 0.00 | 0.00 | 0.00 | 36 | 1002.5 |
| 20260504181036 | 66 | 323 | 3.0 | 9.0 | 0.00 | 0.00 | 0.00 | 37 | 1002.6 |
| 20260504180032 | 66 | 165 | 2.0 | 8.0 | 0.00 | 0.00 | 0.00 | 37 | 1002.6 |
| 20260504175027 | 66 | 218 | 3.0 | 9.0 | 0.00 | 0.00 | 0.00 | 37 | 1002.7 |
| 20260504174022 | 67 | 193 | 2.0 | 4.0 | 0.00 | 0.00 | 0.00 | 36 | 1002.7 |
| 20260504173017 | 68 | 189 | 5.0 | 9.0 | 0.00 | 0.00 | 0.00 | 34 | 1002.8 |
| 20260504172033 | 70 | 202 | 2.0 | 11.0 | 0.00 | 0.00 | 0.00 | 35 | 1002.8 |
| 20260504171030 | 69 | 207 | 3.0 | 9.0 | 0.00 | 0.00 | 0.00 | 34 | 1002.9 |
| 20260504151034 | 65 | 52 | 2.0 | 8.0 | 0.00 | 0.00 | 0.00 | 38 | 1003.7 |
| 20260504141028 | 60 | 264 | 3.0 | 8.0 | 0.00 | 0.00 | 0.00 | 43 | 1004.3 |
| 20260504081030 | 37 | 59 | 0.0 | 2.0 | 0.00 | 0.01 | 0.01 | 94 | 1005.4 |
| 20260504050530 | 32 | 0.0 | 0.0 | 0.00 | 0.01 | 0.01 | 97 | 1005.8 | |
| 20260504045526 | 31 | 0.0 | 0.0 | 0.00 | 0.01 | 0.01 | 96 | 1005.9 | |
| 20260504044522 | 30 | 0.0 | 0.0 | 0.00 | 0.01 | 0.01 | 96 | 1006.0 | |
| 20260504043517 | 30 | 0.0 | 0.0 | 0.00 | 0.01 | 0.01 | 95 | 1005.9 | |
| 20260504042555 | 30 | 46 | 0.0 | 1.0 | 0.00 | 0.01 | 0.01 | 95 | 1005.8 |
| 20260504041528 | 30 | 0.0 | 0.0 | 0.00 | 0.01 | 0.01 | 95 | 1005.8 | |
| 20260504040525 | 30 | 0.0 | 0.0 | 0.00 | 0.01 | 0.01 | 94 | 1005.7 | |
| 20260504035519 | 31 | 0.0 | 0.0 | 0.00 | 0.01 | 0.01 | 94 | 1005.7 | |
| 20260504034535 | 31 | 0.0 | 0.0 | 0.00 | 0.01 | 0.01 | 93 | 1005.7 | |
| 20260504033531 | 31 | 0.0 | 0.0 | 0.00 | 0.01 | 0.01 | 93 | 1005.8 | |
| 20260504032547 | 31 | 0.0 | 0.0 | 0.00 | 0.01 | 0.01 | 92 | 1005.7 | |
| 20260504031522 | 32 | 0.0 | 0.0 | 0.00 | 0.01 | 0.01 | 91 | 1005.6 | |
| 20260504030518 | 32 | 0.0 | 0.0 | 0.00 | 0.01 | 0.01 | 91 | 1005.6 | |
| 20260504025554 | 33 | 0.0 | 0.0 | 0.00 | 0.01 | 0.01 | 91 | 1005.6 | |
| 20260504024529 | 33 | 0.0 | 0.0 | 0.00 | 0.01 | 0.01 | 90 | 1005.7 | |
| 20260504023525 | 33 | 0.0 | 0.0 | 0.00 | 0.01 | 0.01 | 89 | 1005.6 | |
| 20260504022520 | 34 | 0.0 | 0.0 | 0.00 | 0.01 | 0.01 | 89 | 1005.6 | |
| 20260504021516 | 34 | 0.0 | 0.0 | 0.00 | 0.03 | 0.01 | 88 | 1005.7 | |
| 20260504020552 | 34 | 0.0 | 0.0 | 0.00 | 0.04 | 0.01 | 86 | 1005.6 | |
| 20260504015528 | 35 | 0.0 | 0.0 | 0.00 | 0.04 | 0.01 | 84 | 1005.5 | |
| 20260504014530 | 35 | 0.0 | 0.0 | 0.00 | 0.04 | 0.01 | 83 | 1005.3 | |
| 20260504013518 | 36 | 0.0 | 0.0 | 0.00 | 0.04 | 0.01 | 82 | 1005.4 | |
| 20260504012534 | 37 | 0.0 | 0.0 | 0.00 | 0.04 | 0.01 | 81 | 1005.3 | |
| 20260504011530 | 37 | 0.0 | 0.0 | 0.00 | 0.04 | 0.01 | 77 | 1005.2 | |
| 20260504010526 | 38 | 0.0 | 0.0 | 0.00 | 0.04 | 0.01 | 74 | 1005.1 | |
| 20260504005521 | 39 | 0.0 | 0.0 | 0.00 | 0.04 | 0.01 | 73 | 1005.0 | |
| 20260504004517 | 40 | 0.0 | 0.0 | 0.00 | 0.04 | 0.01 | 70 | 1004.9 | |
| 20260504003532 | 41 | 0.0 | 0.0 | 0.00 | 0.04 | 0.01 | 67 | 1004.8 | |
| 20260504002529 | 42 | 0.0 | 0.0 | 0.00 | 0.04 | 0.01 | 65 | 1004.7 | |
| 20260504001524 | 43 | 0.0 | 0.0 | 0.00 | 0.04 | 0.01 | 63 | 1004.6 | |
| 20260504000519 | 44 | 0.0 | 0.0 | 0.00 | 0.04 | 0.01 | 60 | 1004.4 | |
| 20260503235535 | 44 | 0.0 | 0.0 | 0.00 | 0.04 | 0.01 | 58 | 1004.4 | |
| 20260503234612 | 45 | 0.0 | 0.0 | 0.00 | 0.04 | 0.01 | 56 | 1004.3 | |
| 20260503233527 | 46 | 0.0 | 0.0 | 0.00 | 0.04 | 0.01 | 53 | 1004.2 | |
| 20260503232523 | 47 | 264 | 1.0 | 4.0 | 0.00 | 0.04 | 0.01 | 51 | 1004.2 |
| 20260503231516 | 48 | 11 | 1.0 | 7.0 | 0.00 | 0.05 | 0.01 | 49 | 1004.1 |
| 20260503230535 | 48 | 5 | 0.0 | 2.0 | 0.00 | 0.05 | 0.01 | 48 | 1004.0 |
| 20260503225528 | 49 | 313 | 1.0 | 3.0 | 0.00 | 0.06 | 0.01 | 48 | 1003.9 |
| 20260503224525 | 49 | 14 | 3.0 | 6.0 | 0.00 | 0.06 | 0.01 | 48 | 1003.8 |
| 20260503223520 | 49 | 1 | 2.0 | 10.0 | 0.00 | 0.06 | 0.01 | 47 | 1003.9 |
| 20260503222535 | 49 | 346 | 4.0 | 15.0 | 0.00 | 0.06 | 0.01 | 46 | 1003.8 |
| 20260503221531 | 50 | 331 | 3.0 | 8.0 | 0.00 | 0.06 | 0.01 | 45 | 1003.8 |
| 20260503220527 | 50 | 347 | 4.0 | 10.0 | 0.00 | 0.06 | 0.01 | 45 | 1003.6 |
| 20260503215522 | 51 | 348 | 3.0 | 11.0 | 0.00 | 0.08 | 0.01 | 43 | 1003.5 |
| 20260503214517 | 50 | 341 | 3.0 | 10.0 | 0.00 | 0.12 | 0.01 | 46 | 1003.5 |
| 20260503213533 | 51 | 1 | 4.0 | 11.0 | 0.00 | 0.14 | 0.01 | 43 | 1003.3 |
| 20260503212529 | 50 | 297 | 2.0 | 8.0 | 0.00 | 0.14 | 0.01 | 44 | 1003.2 |
| 20260503211524 | 50 | 350 | 3.0 | 8.0 | 0.00 | 0.14 | 0.01 | 44 | 1003.2 |
| 20260503210518 | 51 | 332 | 3.0 | 7.0 | 0.00 | 0.15 | 0.01 | 42 | 1002.9 |
| 20260503205534 | 50 | 344 | 3.0 | 13.0 | 0.00 | 0.16 | 0.01 | 43 | 1003.0 |
| 20260503204529 | 51 | 351 | 4.0 | 9.0 | 0.00 | 0.17 | 0.01 | 43 | 1002.8 |
| 20260503203526 | 50 | 7 | 4.0 | 8.0 | 0.00 | 0.17 | 0.01 | 44 | 1002.9 |
| 20260503202522 | 51 | 331 | 5.0 | 8.0 | 0.00 | 0.18 | 0.01 | 42 | 1002.7 |
| 20260503201516 | 51 | 339 | 3.0 | 6.0 | 0.00 | 0.18 | 0.01 | 41 | 1002.7 |
| 20260503200532 | 51 | 322 | 4.0 | 8.0 | 0.00 | 0.18 | 0.01 | 40 | 1002.6 |
| 20260503195528 | 52 | 339 | 4.0 | 8.0 | 0.00 | 0.18 | 0.01 | 41 | 1002.7 |
| 20260503194524 | 52 | 349 | 4.0 | 10.0 | 0.00 | 0.19 | 0.01 | 44 | 1002.8 |
| 20260503193540 | 51 | 340 | 4.0 | 13.0 | 0.00 | 0.19 | 0.01 | 42 | 1002.8 |
| 20260503192535 | 51 | 342 | 5.0 | 11.0 | 0.00 | 0.22 | 0.01 | 42 | 1002.6 |
| 20260503191530 | 51 | 341 | 4.0 | 10.0 | 0.00 | 0.24 | 0.01 | 44 | 1002.7 |
| 20260503190526 | 51 | 338 | 3.0 | 10.0 | 0.00 | 0.24 | 0.01 | 43 | 1002.7 |
| 20260503185523 | 51 | 296 | 5.0 | 9.0 | 0.00 | 0.24 | 0.01 | 41 | 1002.6 |
| 20260503184537 | 51 | 344 | 5.0 | 13.0 | 0.00 | 0.24 | 0.01 | 43 | 1002.7 |
| 20260503183532 | 51 | 329 | 3.0 | 7.0 | 0.00 | 0.24 | 0.01 | 43 | 1002.6 |